When you browse on this site, cookies collect data to enhance your experience and personalize the content and advertising you see.
Visit our Privacy Policy to learn more. By continuing to use the site, you agree to this use of cookies and data.
  • In United Kingdom
  • List of Countries
  • For 7 days
  • Water Temperature
  • Weather Map
  • Weather Widgets
  • user-avatar
    Login

    Hourly Weather Hannover

    Today, 15 November, Friday

    Time Temperature Precipitation Wind Pressure Humidity
    00:00 +1°C° 0 mm 5 mps 749 mmHg 84%
    01:00 +1°C° 0 mm 5 mps 749 mmHg 90%
    02:00 +1°C° 0 mm 5 mps 749 mmHg 88%
    03:00 +1°C° 0 mm 6 mps 748 mmHg 87%
    04:00 0°C° 0 mm 7 mps 748 mmHg 86%
    05:00 +1°C° 0 mm 6 mps 748 mmHg 85%
    06:00 +1°C° 0 mm 6 mps 747 mmHg 84%
    07:00 +2°C° 0 mm 5 mps 747 mmHg 83%
    08:00 +2°C° 0 mm 6 mps 747 mmHg 82%
    09:00 +3°C° 0 mm 7 mps 747 mmHg 82%
    10:00 +3°C° 0 mm 7 mps 746 mmHg 81%
    11:00 +4°C° 0 mm 7 mps 746 mmHg 80%
    12:00 +5°C° 0 mm 6 mps 746 mmHg 78%
    13:00 +6°C° 0 mm 4 mps 746 mmHg 76%
    14:00 +6°C° 0 mm 4 mps 747 mmHg 79%
    15:00 +7°C° 0 mm 3 mps 747 mmHg 81%
    16:00 +7°C° 0 mm 3 mps 747 mmHg 84%
    17:00 +6°C° 0 mm 2 mps 747 mmHg 86%
    18:00 +6°C° 0 mm 2 mps 747 mmHg 89%
    19:00 +6°C° 0 mm 2 mps 747 mmHg 92%
    20:00 +5°C° 0 mm 2 mps 747 mmHg 92%
    21:00 +6°C° 0 mm 1 mps 747 mmHg 92%
    22:00 +6°C° 0 mm 1 mps 747 mmHg 93%
    23:00 +6°C° 0 mm 1 mps 747 mmHg 93%

    Tomorrow, 16 November, Saturday

    Time Temperature Precipitation Wind Pressure Humidity
    00:00 +5°C° 0 mm 1 mps 747 mmHg 94%
    01:00 +5°C° 0 mm 1 mps 747 mmHg 94%
    02:00 +4°C° 0 mm 2 mps 747 mmHg 93%
    03:00 +4°C° 0 mm 2 mps 747 mmHg 91%
    04:00 +4°C° 0 mm 2 mps 746 mmHg 90%
    05:00 +3°C° 1.1 mm 4 mps 746 mmHg 91%
    06:00 +2°C° 1.1 mm 5 mps 746 mmHg 92%
    07:00 +2°C° 1.1 mm 6 mps 746 mmHg 93%
    08:00 +2°C° 1.8 mm 6 mps 746 mmHg 93%
    09:00 +2°C° 1.8 mm 6 mps 746 mmHg 93%
    10:00 +2°C° 1.8 mm 7 mps 747 mmHg 93%
    11:00 +2°C° 1 mm 7 mps 747 mmHg 92%
    12:00 +2°C° 1 mm 7 mps 748 mmHg 92%
    13:00 +1°C° 1 mm 8 mps 748 mmHg 92%
    14:00 +3°C° 0.1 mm 7 mps 749 mmHg 87%
    15:00 +3°C° 0.1 mm 6 mps 749 mmHg 83%
    16:00 +3°C° 0.1 mm 6 mps 750 mmHg 78%
    17:00 +3°C° 0 mm 5 mps 750 mmHg 79%
    18:00 +4°C° 0 mm 4 mps 751 mmHg 81%
    19:00 +3°C° 0 mm 3 mps 752 mmHg 82%
    20:00 +3°C° 0 mm 3 mps 752 mmHg 83%
    21:00 +3°C° 0 mm 3 mps 753 mmHg 83%
    22:00 +1°C° 0 mm 4 mps 754 mmHg 84%
    23:00 +2°C° 0 mm 3 mps 754 mmHg 84%

    Day after tomorrow, 17 November, Sunday

    Time Temperature Precipitation Wind Pressure Humidity
    00:00 +2°C° 0 mm 3 mps 754 mmHg 85%
    01:00 +2°C° 0 mm 2 mps 754 mmHg 85%
    02:00 +2°C° 0 mm 2 mps 754 mmHg 85%
    03:00 +2°C° 0 mm 2 mps 754 mmHg 85%
    04:00 +2°C° 0 mm 2 mps 754 mmHg 85%
    05:00 +3°C° 0 mm 1 mps 755 mmHg 85%
    06:00 +2°C° 0 mm 1 mps 755 mmHg 84%
    07:00 +2°C° 0 mm 1 mps 755 mmHg 84%
    08:00 +3°C° 0 mm 1 mps 755 mmHg 81%
    09:00 +4°C° 0 mm 1 mps 755 mmHg 78%
    10:00 +4°C° 0 mm 2 mps 755 mmHg 76%
    11:00 +4°C° 0 mm 2 mps 755 mmHg 74%
    12:00 +4°C° 0 mm 3 mps 754 mmHg 72%
    13:00 +5°C° 0 mm 3 mps 754 mmHg 70%
    14:00 +5°C° 0 mm 4 mps 753 mmHg 72%
    15:00 +4°C° 0 mm 4 mps 753 mmHg 74%
    16:00 +4°C° 0 mm 4 mps 752 mmHg 76%
    17:00 +3°C° 0 mm 5 mps 751 mmHg 78%
    18:00 +3°C° 0 mm 5 mps 751 mmHg 80%
    19:00 +3°C° 0 mm 5 mps 750 mmHg 82%
    20:00 +5°C° 0 mm 4 mps 750 mmHg 84%
    21:00 +5°C° 0 mm 4 mps 749 mmHg 87%
    22:00 +5°C° 0 mm 4 mps 749 mmHg 90%
    23:00 +5°C° 0 mm 3 mps 748 mmHg 92%

    18 November, Monday

    Time Temperature Precipitation Wind Pressure Humidity
    00:00 +5°C° 0 mm 3 mps 748 mmHg 93%
    01:00 +6°C° 0 mm 2 mps 747 mmHg 95%
    02:00 +6°C° 0 mm 2 mps 747 mmHg 95%
    03:00 +6°C° 0 mm 2 mps 746 mmHg 96%
    04:00 +7°C° 0 mm 1 mps 746 mmHg 97%
    05:00 +7°C° 0 mm 1 mps 746 mmHg 97%
    06:00 +7°C° 0 mm 1 mps 746 mmHg 97%
    07:00 +7°C° 0 mm 1 mps 746 mmHg 96%
    08:00 +7°C° 0 mm 1 mps 746 mmHg 96%
    09:00 +8°C° 0 mm 1 mps 746 mmHg 95%
    10:00 +8°C° 0 mm 1 mps 746 mmHg 94%
    11:00 +8°C° 0.5 mm 1 mps 746 mmHg 95%
    12:00 +7°C° 0.5 mm 2 mps 746 mmHg 95%
    13:00 +7°C° 0.5 mm 2 mps 745 mmHg 96%
    14:00 +7°C° 0.7 mm 3 mps 745 mmHg 94%
    15:00 +7°C° 0.7 mm 3 mps 745 mmHg 93%
    16:00 +6°C° 0.7 mm 4 mps 745 mmHg 91%
    17:00 +6°C° 0.1 mm 4 mps 746 mmHg 89%
    18:00 +6°C° 0.1 mm 5 mps 746 mmHg 86%
    19:00 +5°C° 0.1 mm 6 mps 746 mmHg 84%
    20:00 +5°C° 0 mm 6 mps 747 mmHg 83%
    21:00 +5°C° 0 mm 6 mps 747 mmHg 83%
    22:00 +4°C° 0 mm 6 mps 747 mmHg 83%
    23:00 +4°C° 0 mm 6 mps 747 mmHg 82%

    19 November, Tuesday

    Time Temperature Precipitation Wind Pressure Humidity
    00:00 +4°C° 0 mm 7 mps 747 mmHg 81%
    01:00 +4°C° 0 mm 7 mps 747 mmHg 79%
    02:00 +4°C° 0.3 mm 7 mps 747 mmHg 81%
    03:00 +4°C° 0.3 mm 8 mps 747 mmHg 83%
    04:00 +3°C° 0.3 mm 9 mps 747 mmHg 85%
    05:00 +4°C° 0.4 mm 8 mps 747 mmHg 84%
    06:00 +5°C° 0.4 mm 8 mps 747 mmHg 82%
    07:00 +5°C° 0.4 mm 8 mps 747 mmHg 81%
    08:00 +5°C° 0 mm 8 mps 748 mmHg 79%
    09:00 +5°C° 0 mm 8 mps 749 mmHg 76%
    10:00 +5°C° 0 mm 8 mps 749 mmHg 74%
    11:00 +6°C° 0 mm 8 mps 750 mmHg 71%
    12:00 +6°C° 0 mm 7 mps 750 mmHg 68%
    13:00 +6°C° 0 mm 7 mps 751 mmHg 66%
    14:00 +6°C° 0 mm 7 mps 751 mmHg 67%
    15:00 +5°C° 0 mm 6 mps 751 mmHg 69%
    16:00 +6°C° 0 mm 5 mps 752 mmHg 71%
    17:00 +5°C° 0 mm 5 mps 752 mmHg 73%
    18:00 +4°C° 0 mm 4 mps 753 mmHg 75%
    19:00 +3°C° 0 mm 4 mps 753 mmHg 78%
    20:00 +3°C° 0 mm 4 mps 754 mmHg 78%
    21:00 +2°C° 0 mm 3 mps 754 mmHg 79%
    22:00 +2°C° 0 mm 3 mps 755 mmHg 80%
    23:00 +2°C° 0 mm 3 mps 755 mmHg 81%

    20 November, Wednesday

    Time Temperature Precipitation Wind Pressure Humidity
    00:00 +1°C° 0 mm 3 mps 755 mmHg 81%
    01:00 +1°C° 0 mm 3 mps 756 mmHg 82%
    02:00 +2°C° 0 mm 2 mps 756 mmHg 83%
    03:00 +1°C° 0 mm 2 mps 756 mmHg 83%
    04:00 +1°C° 0 mm 2 mps 756 mmHg 84%
    05:00 +1°C° 0 mm 2 mps 756 mmHg 83%
    06:00 +1°C° 0 mm 2 mps 756 mmHg 83%
    07:00 +1°C° 0 mm 2 mps 757 mmHg 83%
    08:00 +3°C° 0 mm 1 mps 757 mmHg 80%
    09:00 +4°C° 0 mm 1 mps 757 mmHg 78%
    10:00 +4°C° 0 mm 1 mps 757 mmHg 75%
    11:00 +5°C° 0 mm 1 mps 757 mmHg 72%
    12:00 +6°C° 0 mm 1 mps 757 mmHg 70%
    13:00 +6°C° 0 mm 2 mps 756 mmHg 68%
    14:00 +5°C° 0 mm 2 mps 756 mmHg 71%
    15:00 +5°C° 0 mm 2 mps 756 mmHg 74%
    16:00 +4°C° 0 mm 2 mps 755 mmHg 78%
    17:00 +4°C° 0 mm 2 mps 755 mmHg 80%
    18:00 +3°C° 0 mm 2 mps 755 mmHg 83%
    19:00 +3°C° 0 mm 2 mps 755 mmHg 85%
    20:00 +3°C° 0 mm 2 mps 755 mmHg 84%
    21:00 +3°C° 0 mm 2 mps 755 mmHg 84%
    22:00 +4°C° 0 mm 2 mps 755 mmHg 83%
    23:00 +3°C° 0 mm 2 mps 754 mmHg 84%
    Show more